Find Starlink 5406

NORAD ID: 54860 Int'l Des: 2022-177 Owner: SPXS Country: US Constellation: starlink operational
LEOCIRCULAR

リアルタイム位置

3D地球を読み込み中...

Starlink 5406について

説明を読み込み中...

次回通過

Passes for default location (London). Set your location on the main map for personalized predictions.

高度履歴

Loading altitude history...

軌道要素

1 54860U 22177AS 26104.86662838 .00003932 00000-0 15614-3 0 9999
2 54860 43.0035 277.2513 0001165 274.0641 86.0077 15.26752348182624
Epoch: Apr 14, 2026 • Age: 7 hours

現在のステータス

高度 497.4 km
速度 7.62 km/s
衛星直下点 -41.37°S, 100.81°W
打ち上げ日 Dec 28, 2022
運用期間 3.2 years
タイプ internet

技術仕様

分類 Payload
質量 305.00 kg
乾燥質量 290.00 kg
総質量 305.00 kg
長さ 0.20 m
直径 2.80 m
スパン 9.00 m
形状 Box + pan
製造者 SPXS
バスタイプ Starlink
フェーズステータス In Orbit
所有者/国 SPXS/US

Most Searched